When you browse on this site, cookies collect data to enhance your experience and personalize the content and advertising you see.
Visit our Privacy Policy to learn more. By continuing to use the site, you agree to this use of cookies and data.

Stündliche Wetter Tschachansur

Heute, 18 September, Freitag

Zeit Temperatur Niederschläge Wind Luftdruck Luftfeuchtigkeit
00:00 +24°C° 0 mm 10 m/S 715 mmHg 27%
01:00 +23°C° 0 mm 10 m/S 715 mmHg 29%
02:00 +22°C° 0 mm 9 m/S 715 mmHg 32%
03:00 +22°C° 0 mm 9 m/S 714 mmHg 34%
04:00 +21°C° 0 mm 9 m/S 715 mmHg 37%
05:00 +21°C° 0 mm 9 m/S 715 mmHg 37%
06:00 +21°C° 0 mm 10 m/S 716 mmHg 36%
07:00 +21°C° 0 mm 10 m/S 716 mmHg 36%
08:00 +24°C° 0 mm 10 m/S 716 mmHg 30%
09:00 +27°C° 0 mm 10 m/S 716 mmHg 25%
10:00 +31°C° 0 mm 10 m/S 717 mmHg 19%
11:00 +33°C° 0 mm 10 m/S 716 mmHg 16%
12:00 +35°C° 0 mm 9 m/S 716 mmHg 13%
13:00 +38°C° 0 mm 9 m/S 715 mmHg 10%
14:00 +39°C° 0 mm 10 m/S 715 mmHg 9%
15:00 +39°C° 0 mm 11 m/S 714 mmHg 9%
16:00 +39°C° 0 mm 11 m/S 714 mmHg 8%
17:00 +36°C° 0 mm 11 m/S 714 mmHg 10%
18:00 +33°C° 0 mm 11 m/S 714 mmHg 12%
19:00 +29°C° 0 mm 11 m/S 714 mmHg 14%
20:00 +28°C° 0 mm 10 m/S 714 mmHg 16%
21:00 +26°C° 0 mm 10 m/S 714 mmHg 17%
22:00 +24°C° 0 mm 10 m/S 714 mmHg 18%
23:00 +23°C° 0 mm 10 m/S 713 mmHg 19%

Morgen, 19 September, Samstag

Zeit Temperatur Niederschläge Wind Luftdruck Luftfeuchtigkeit
00:00 +21°C° 0 mm 9 m/S 713 mmHg 19%
01:00 +19°C° 0 mm 9 m/S 713 mmHg 19%
02:00 +18°C° 0 mm 8 m/S 713 mmHg 19%
03:00 +17°C° 0 mm 7 m/S 713 mmHg 19%
04:00 +17°C° 0 mm 6 m/S 712 mmHg 19%
05:00 +17°C° 0 mm 6 m/S 713 mmHg 19%
06:00 +17°C° 0 mm 6 m/S 714 mmHg 19%
07:00 +17°C° 0 mm 6 m/S 714 mmHg 18%
08:00 +21°C° 0 mm 5 m/S 714 mmHg 16%
09:00 +25°C° 0 mm 5 m/S 715 mmHg 14%
10:00 +28°C° 0 mm 5 m/S 715 mmHg 12%
11:00 +30°C° 0 mm 5 m/S 715 mmHg 10%
12:00 +33°C° 0 mm 4 m/S 714 mmHg 9%
13:00 +36°C° 0 mm 4 m/S 714 mmHg 8%
14:00 +36°C° 0 mm 4 m/S 714 mmHg 7%
15:00 +37°C° 0 mm 4 m/S 713 mmHg 7%
16:00 +38°C° 0 mm 4 m/S 713 mmHg 6%
17:00 +35°C° 0 mm 4 m/S 713 mmHg 7%
18:00 +32°C° 0 mm 4 m/S 713 mmHg 8%
19:00 +28°C° 0 mm 4 m/S 713 mmHg 10%
20:00 +27°C° 0 mm 4 m/S 713 mmHg 10%
21:00 +26°C° 0 mm 4 m/S 713 mmHg 10%
22:00 +25°C° 0 mm 4 m/S 713 mmHg 10%
23:00 +22°C° 0 mm 3 m/S 713 mmHg 10%

übermorgen, 20 September, Sonntag

Zeit Temperatur Niederschläge Wind Luftdruck Luftfeuchtigkeit
00:00 +21°C° 0 mm 3 m/S 712 mmHg 10%
01:00 +20°C° 0 mm 3 m/S 712 mmHg 10%
02:00 +20°C° 0 mm 3 m/S 712 mmHg 11%
03:00 +19°C° 0 mm 3 m/S 712 mmHg 12%
04:00 +18°C° 0 mm 3 m/S 712 mmHg 13%
05:00 +19°C° 0 mm 3 m/S 713 mmHg 12%
06:00 +20°C° 0 mm 3 m/S 714 mmHg 11%
07:00 +21°C° 0 mm 3 m/S 714 mmHg 11%
08:00 +25°C° 0 mm 2 m/S 715 mmHg 9%
09:00 +28°C° 0 mm 2 m/S 715 mmHg 8%
10:00 +31°C° 0 mm 1 m/S 715 mmHg 6%
11:00 +33°C° 0 mm 1 m/S 715 mmHg 5%
12:00 +35°C° 0 mm 1 m/S 715 mmHg 5%
13:00 +37°C° 0 mm 1 m/S 714 mmHg 4%
14:00 +39°C° 0 mm 2 m/S 714 mmHg 4%
15:00 +39°C° 0 mm 2 m/S 713 mmHg 3%
16:00 +40°C° 0 mm 3 m/S 713 mmHg 3%
17:00 +37°C° 0 mm 3 m/S 713 mmHg 3%
18:00 +34°C° 0 mm 3 m/S 713 mmHg 4%
19:00 +30°C° 0 mm 4 m/S 712 mmHg 5%
20:00 +29°C° 0 mm 4 m/S 713 mmHg 6%
21:00 +28°C° 0 mm 5 m/S 713 mmHg 7%
22:00 +27°C° 0 mm 6 m/S 713 mmHg 8%
23:00 +26°C° 0 mm 6 m/S 713 mmHg 11%

21 September, Montag

Zeit Temperatur Niederschläge Wind Luftdruck Luftfeuchtigkeit
00:00 +23°C° 0 mm 6 m/S 712 mmHg 13%
01:00 +22°C° 0 mm 6 m/S 712 mmHg 16%
02:00 +22°C° 0 mm 7 m/S 712 mmHg 22%
03:00 +21°C° 0 mm 7 m/S 713 mmHg 28%
04:00 +20°C° 0 mm 7 m/S 713 mmHg 35%
05:00 +20°C° 0 mm 6 m/S 713 mmHg 35%
06:00 +21°C° 0 mm 6 m/S 714 mmHg 36%
07:00 +21°C° 0 mm 5 m/S 714 mmHg 37%
08:00 +24°C° 0 mm 6 m/S 714 mmHg 29%
09:00 +28°C° 0 mm 6 m/S 715 mmHg 21%
10:00 +32°C° 0 mm 6 m/S 715 mmHg 14%
11:00 +34°C° 0 mm 6 m/S 715 mmHg 11%
12:00 +36°C° 0 mm 5 m/S 714 mmHg 8%
13:00 +39°C° 0 mm 5 m/S 714 mmHg 5%
14:00 +40°C° 0 mm 6 m/S 714 mmHg 5%
15:00 +40°C° 0 mm 6 m/S 713 mmHg 5%
16:00 +40°C° 0 mm 6 m/S 713 mmHg 5%
17:00 +38°C° 0 mm 6 m/S 713 mmHg 8%
18:00 +34°C° 0 mm 7 m/S 713 mmHg 10%
19:00 +32°C° 0 mm 7 m/S 713 mmHg 13%
20:00 +29°C° 0 mm 8 m/S 713 mmHg 15%
21:00 +28°C° 0 mm 8 m/S 713 mmHg 18%
22:00 +26°C° 0 mm 9 m/S 713 mmHg 21%
23:00 +24°C° 0 mm 9 m/S 713 mmHg 22%

22 September, Dienstag

Zeit Temperatur Niederschläge Wind Luftdruck Luftfeuchtigkeit
00:00 +23°C° 0 mm 9 m/S 713 mmHg 24%
01:00 +23°C° 0 mm 9 m/S 713 mmHg 25%
02:00 +22°C° 0 mm 8 m/S 713 mmHg 26%
03:00 +21°C° 0 mm 7 m/S 713 mmHg 26%
04:00 +20°C° 0 mm 7 m/S 713 mmHg 27%
05:00 +21°C° 0 mm 7 m/S 713 mmHg 27%
06:00 +21°C° 0 mm 7 m/S 714 mmHg 26%
07:00 +21°C° 0 mm 7 m/S 714 mmHg 26%
08:00 +24°C° 0 mm 7 m/S 714 mmHg 22%
09:00 +28°C° 0 mm 7 m/S 715 mmHg 18%
10:00 +32°C° 0 mm 7 m/S 715 mmHg 13%
11:00 +34°C° 0 mm 7 m/S 714 mmHg 11%
12:00 +36°C° 0 mm 7 m/S 714 mmHg 9%
13:00 +39°C° 0 mm 7 m/S 714 mmHg 7%
14:00 +39°C° 0 mm 7 m/S 713 mmHg 7%
15:00 +40°C° 0 mm 8 m/S 713 mmHg 8%
16:00 +40°C° 0 mm 8 m/S 713 mmHg 8%
17:00 +38°C° 0 mm 9 m/S 713 mmHg 10%
18:00 +34°C° 0 mm 9 m/S 713 mmHg 13%
19:00 +32°C° 0 mm 10 m/S 713 mmHg 15%
20:00 +29°C° 0 mm 9 m/S 713 mmHg 18%
21:00 +28°C° 0 mm 9 m/S 713 mmHg 21%
22:00 +27°C° 0 mm 8 m/S 713 mmHg 24%
23:00 +26°C° 0 mm 9 m/S 713 mmHg 25%

23 September, Mittwoch

Zeit Temperatur Niederschläge Wind Luftdruck Luftfeuchtigkeit
00:00 +24°C° 0 mm 9 m/S 712 mmHg 26%
01:00 +23°C° 0 mm 10 m/S 712 mmHg 27%
02:00 +23°C° 0 mm 9 m/S 712 mmHg 28%
03:00 +22°C° 0 mm 9 m/S 712 mmHg 28%
04:00 +22°C° 0 mm 8 m/S 712 mmHg 28%
05:00 +22°C° 0 mm 9 m/S 712 mmHg 27%
06:00 +22°C° 0 mm 9 m/S 713 mmHg 26%
07:00 +22°C° 0 mm 9 m/S 713 mmHg 25%
08:00 +26°C° 0 mm 9 m/S 714 mmHg 21%
09:00 +29°C° 0 mm 8 m/S 714 mmHg 17%
10:00 +32°C° 0 mm 8 m/S 714 mmHg 13%
11:00 +34°C° 0 mm 8 m/S 714 mmHg 12%
12:00 +38°C° 0 mm 7 m/S 714 mmHg 10%
13:00 +40°C° 0 mm 7 m/S 713 mmHg 8%
14:00 +40°C° 0 mm 8 m/S 713 mmHg 8%
15:00 +40°C° 0 mm 10 m/S 713 mmHg 8%
16:00 +41°C° 0 mm 11 m/S 712 mmHg 8%
17:00 +38°C° 0 mm 11 m/S 712 mmHg 10%
18:00 +34°C° 0 mm 11 m/S 712 mmHg 12%
19:00 +32°C° 0 mm 11 m/S 712 mmHg 14%
20:00 +29°C° 0 mm 11 m/S 713 mmHg 16%
21:00 +28°C° 0 mm 11 m/S 713 mmHg 18%
22:00 +26°C° 0 mm 12 m/S 713 mmHg 20%
23:00 +24°C° 0 mm 12 m/S 713 mmHg 20%
Mehr zeigen